Location: Bastelaar
(51.0950°N, 3.8602°E)
Time: 20:05:52
(UTC+00:00)

BlueWalker 3 - Pass Details

Date: 26 January 2026
Orbit: 450 x 461 km, 53.2° (Epoch: 11 February)

Event Time Altitude Azimuth Distance (km) Brightness Sun altitude
Rises 17:36:25 0° 238° (WSW) 2,452 7.1 -11.2°
Reaches altitude 10° 17:38:33 10° 235° (SW) 1,581 5.7 -11.5°
Maximum altitude 17:42:04 62° 154° (SSE) 514 1.9 -12.0°
Enters shadow 17:44:16 21° 78° (ENE) 1,072 3.0 -12.4°
